User: anonymous   Login
Location: Griffin Ranch
(33.6186°N, 110.6622°W)
Time: 23:50:56
(UTC-07:00)
Language:

Cosmos 1812 - Orbit

View from above orbital plane
View from above orbital plane
View from above satellite
View from above satellite

Ground track
Ground track

The orbit data is extracted from the following two-line orbital elements,

1 17295U 87003A   18053.05947484  .00000525  00000-0  26578-4 0  9994
2 17295  82.5116 259.1161 0003439  11.8872 348.2441 15.14827010696781
Epoch (UTC): 22 February 2018 01:25:38
Eccentricity: 0.0003439
inclination: 82.5116°
perigee height: 519 km
apogee height: 524 km
right ascension of ascending node: 259.1161°
argument of perigee: 11.8872°
revolutions per day: 15.14827010
mean anomaly at epoch: 348.2441°
orbit number at epoch: 69678

The dashed part of the orbit path shows where the satellite is in the earth's shadow,  

DLR